CZ-3B R/B

Last updated on Nov. 15, 2020, 12:02 a.m. UTC

1 46917U 20082B   20319.16027356  .00018793 -17187-7  15198-3 0  9991
2 46917  28.4170 289.0312 7243285 178.0167 188.7357  2.38392585   168
UTC
Height (km)
Latitude
Longitude
Inclination
Orbital Period
UTC large
Height (km)
Speed (km/s)
/
Latitude / Longitude
Inclination (degrees)
Orbital Period (minutes)
Azimuth
Elevation
Range (km)
Doppler Factor
iOS Compass Heading
iOS Angle

Next 30 passes for location: Hong Kong

Rise time Rise Azimuth (degrees) Set time Set Azimuth (degrees) Duration Max altitude (degrees)

No matching passes for this satellites